Location: Eferding
(48.3167°N, 14.0167°E)
Time: 02:37:17
(UTC+00:00)

Cosmos 2173 Rocket - Pass Details

Date: 12 November 2019
Orbit: 944 x 1001 km, 83.0° (Epoch: 12 December)

Event Time Altitude Azimuth Distance (km) Brightness Sun altitude
Rises 15:47:59 0° 349° (N) 3,642 6.9 -3.6°
Reaches altitude 10° 15:50:30 10° 348° (NNW) 2,687 6.2 -4.0°
Maximum altitude 15:56:37 76° 265° (W) 979 4.3 -5.0°
Drops below altitude 10° 16:02:39 10° 180° (S) 2,657 6.6 -5.9°
Sets 16:05:08 0° 179° (S) 3,598 7.2 -6.3°
